Tracking 23611 objects as of 18-Sep-2021
HD Live streaming from Space Station
objects crossing your sky now
Track INSPIRATION-4

SL-3 R/B

Track SL-3 R/B now!
10-day predictions
SL-3 R/B is classified as:


NORAD ID: 12904
Int'l Code: 1981-103B
Perigee: 536.0 km
Apogee: 574.7 km
Inclination: 81.2 °
Period: 95.6 minutes
Semi major axis: 6926 km
RCS: 5.653 m2 (large)
Launch date: October 13, 1981
Source: Commonwealth of Independent States (former USSR) (CIS)
Launch site: PLESETSK MISSILE AND SPACE COMPLEX (PKMTR)

Note: This is a ROCKET BODY
aabbcc
Your satellite tracking list
Your tracking list is empty




NASA's NSSDC Master Catalog

Two Line Element Set (TLE):
1 12904U 81103B   21261.50571134  .00000405  00000-0  25942-4 0  9992
2 12904  81.1745 299.3130 0027953 350.8115   9.2592 15.06084054726487
Source of the keplerian elements: AFSPC